| time (UTC) | temp C | wind direction | speed KPH | gust KPH | rain 1hr cm | rain 24hr cm | rain mn cm | humidity % | barometer mb |
| 20260505093044 | 9 | 327 | 0.0 | 4.8 | 0.03 | 1.35 | 0.20 | 100 | 1010.3 |
| 20260505092546 | 9 | 103 | 0.0 | 3.2 | 0.08 | 1.35 | 0.20 | 100 | 1010.4 |
| 20260505091044 | 9 | 215 | 0.0 | 1.6 | 0.10 | 1.35 | 0.20 | 100 | 1010.6 |
| 20260505090541 | 9 | 228 | 0.0 | 1.6 | 0.13 | 1.35 | 0.20 | 100 | 1011.0 |
| 20260505085033 | 9 | 228 | 0.0 | 6.4 | 0.13 | 1.35 | 0.20 | 100 | 1010.8 |
| 20260505084010 | 9 | 29 | 1.6 | 6.4 | 0.15 | 1.35 | 0.20 | 100 | 1010.6 |
| 20260505083000 | 9 | 249 | 1.6 | 12.9 | 0.13 | 1.32 | 0.18 | 100 | 1010.8 |
| 20260505081959 | 9 | 130 | 1.6 | 11.3 | 0.10 | 1.27 | 0.13 | 100 | 1010.9 |
| 20260505081000 | 9 | 99 | 1.6 | 8.0 | 0.10 | 1.24 | 0.10 | 100 | 1010.9 |
| 20260505080000 | 9 | 234 | 0.0 | 4.8 | 0.08 | 1.22 | 0.08 | 100 | 1010.8 |
| 20260505074945 | 10 | 61 | 1.6 | 14.5 | 0.10 | 1.22 | 0.08 | 100 | 1011.0 |
| 20260505073941 | 10 | 53 | 3.2 | 16.1 | 0.08 | 1.19 | 0.05 | 100 | 1011.0 |
| 20260505072942 | 9 | 232 | 1.6 | 11.3 | 0.10 | 1.19 | 0.05 | 100 | 1011.2 |
| 20260505065931 | 9 | 254 | 0.0 | 6.4 | 0.13 | 1.14 | 1.14 | 100 | 1011.2 |
| 20260505064927 | 9 | 127 | 1.6 | 11.3 | 0.10 | 1.12 | 1.12 | 100 | 1011.2 |
| 20260505063926 | 9 | 159 | 1.6 | 6.4 | 0.13 | 1.12 | 1.12 | 100 | 1010.8 |
| 20260505062922 | 9 | 235 | 0.0 | 8.0 | 0.10 | 1.09 | 1.09 | 100 | 1010.8 |
| 20260505062421 | 9 | 191 | 0.0 | 9.7 | 0.10 | 1.07 | 1.07 | 100 | 1011.1 |
| 20260505060919 | 9 | 149 | 0.0 | 4.8 | 0.05 | 1.02 | 1.02 | 100 | 1011.2 |
| 20260505055917 | 9 | 227 | 1.6 | 8.0 | 0.08 | 1.02 | 1.02 | 100 | 1011.0 |
| 20260505054916 | 9 | 254 | 0.0 | 9.7 | 0.10 | 1.02 | 1.02 | 100 | 1010.9 |
| 20260505053915 | 8 | 52 | 0.0 | 6.4 | 0.13 | 0.99 | 0.99 | 100 | 1011.2 |
| 20260505052914 | 8 | 224 | 0.0 | 8.0 | 0.20 | 0.99 | 0.99 | 100 | 1011.1 |
| 20260505051911 | 8 | 244 | 1.6 | 14.5 | 0.25 | 0.97 | 0.97 | 100 | 1011.2 |
| 20260505051406 | 8 | 254 | 1.6 | 11.3 | 0.28 | 0.97 | 0.97 | 100 | 1011.1 |
| 20260505041339 | 8 | 84 | 0.0 | 3.2 | 0.10 | 0.69 | 0.69 | 100 | 1011.7 |
| 20260505035838 | 8 | 239 | 1.6 | 4.8 | 0.08 | 0.66 | 0.66 | 100 | 1011.4 |
| 20260505035328 | 8 | 244 | 1.6 | 8.0 | 0.08 | 0.66 | 0.66 | 100 | 1010.9 |
| 20260505033818 | 8 | 207 | 0.0 | 8.0 | 0.10 | 0.64 | 0.64 | 100 | 1010.6 |
| 20260505032816 | 8 | 184 | 0.0 | 4.8 | 0.15 | 0.64 | 0.64 | 100 | 1010.4 |
| 20260505031810 | 8 | 234 | 1.6 | 11.3 | 0.13 | 0.61 | 0.61 | 100 | 1010.4 |
| 20260505030809 | 9 | 37 | 1.6 | 11.3 | 0.13 | 0.58 | 0.58 | 100 | 1010.5 |
| 20260505025809 | 9 | 77 | 1.6 | 9.7 | 0.18 | 0.58 | 0.58 | 100 | 1010.9 |
| 20260505024803 | 9 | 132 | 0.0 | 4.8 | 0.18 | 0.58 | 0.58 | 100 | 1010.9 |
| 20260505023800 | 9 | 112 | 0.0 | 4.8 | 0.13 | 0.53 | 0.53 | 100 | 1010.9 |
| 20260505022758 | 9 | 34 | 0.0 | 4.8 | 0.10 | 0.48 | 0.48 | 100 | 1011.0 |
| 20260505021755 | 9 | 239 | 1.6 | 14.5 | 0.10 | 0.48 | 0.48 | 100 | 1010.8 |
| 20260505020732 | 9 | 37 | 1.6 | 11.3 | 0.10 | 0.46 | 0.46 | 100 | 1010.8 |
| 20260505015730 | 10 | 253 | 1.6 | 9.7 | 0.05 | 0.41 | 0.43 | 100 | 1011.0 |
| 20260505014730 | 10 | 98 | 1.6 | 6.4 | 0.08 | 0.41 | 0.41 | 100 | 1011.3 |
| 20260505013728 | 10 | 129 | 1.6 | 8.0 | 0.13 | 0.41 | 0.41 | 100 | 1011.4 |
| 20260505012728 | 10 | 198 | 0.0 | 8.0 | 0.13 | 0.38 | 0.38 | 100 | 1011.6 |
| 20260505011725 | 10 | 168 | 1.6 | 6.4 | 0.18 | 0.38 | 0.38 | 100 | 1011.6 |
| 20260505011228 | 10 | 190 | 1.6 | 12.9 | 0.20 | 0.36 | 0.38 | 99 | 1011.5 |
| 20260505005724 | 10 | 216 | 1.6 | 9.7 | 0.23 | 0.36 | 0.36 | 99 | 1011.6 |
| 20260505004722 | 10 | 277 | 1.6 | 8.0 | 0.20 | 0.33 | 0.33 | 99 | 1011.7 |
| 20260505003721 | 10 | 111 | 1.6 | 9.7 | 0.18 | 0.28 | 0.28 | 98 | 1011.8 |
| 20260505002711 | 10 | 139 | 1.6 | 9.7 | 0.18 | 0.25 | 0.25 | 97 | 1011.8 |
| 20260505001708 | 10 | 165 | 1.6 | 6.4 | 0.13 | 0.20 | 0.20 | 96 | 1011.8 |
| 20260505000707 | 10 | 232 | 0.0 | 3.2 | 0.10 | 0.15 | 0.15 | 96 | 1011.7 |
| 20260505000208 | 11 | 344 | 0.0 | 4.8 | 0.08 | 0.13 | 0.13 | 95 | 1011.6 |
| 20260504235207 | 11 | 226 | 0.0 | 9.7 | 0.10 | 0.13 | 0.13 | 95 | 1011.5 |
| 20260504233705 | 11 | 342 | 0.0 | 4.8 | 0.08 | 0.10 | 0.10 | 95 | 1011.6 |
| 20260504231643 | 11 | 52 | 0.0 | 9.7 | 0.05 | 0.08 | 0.08 | 92 | 1011.5 |
| 20260504230641 | 12 | 271 | 0.0 | 8.0 | 0.05 | 0.05 | 0.05 | 91 | 1011.5 |
| 20260504225640 | 12 | 236 | 0.0 | 4.8 | 0.05 | 0.05 | 0.05 | 90 | 1011.7 |
| 20260504224637 | 12 | 261 | 0.0 | 4.8 | 0.03 | 0.03 | 0.03 | 88 | 1011.8 |
| 20260504223625 | 13 | 139 | 0.0 | 1.6 | 0.03 | 0.03 | 0.03 | 88 | 1011.9 |
| 20260504222604 | 13 | 139 | 0.0 | 3.2 | 0.03 | 0.03 | 0.03 | 89 | 1012.0 |
| 20260504221601 | 13 | 65 | 0.0 | 4.8 | 0.03 | 0.03 | 0.03 | 87 | 1011.9 |
| 20260504220548 | 13 | 77 | 1.6 | 6.4 | 0.00 | 0.00 | 0.00 | 88 | 1011.8 |
| 20260504215548 | 13 | 82 | 0.0 | 4.8 | 0.00 | 0.00 | 0.00 | 86 | 1011.8 |
| 20260504214545 | 13 | 194 | 0.0 | 3.2 | 0.00 | 0.00 | 0.00 | 85 | 1011.8 |
| 20260504213547 | 13 | 217 | 0.0 | 3.2 | 0.00 | 0.00 | 0.00 | 84 | 1011.8 |
| 20260504212546 | 14 | 61 | 1.6 | 6.4 | 0.00 | 0.00 | 0.00 | 80 | 1011.9 |
| 20260504211544 | 14 | 217 | 1.6 | 8.0 | 0.00 | 0.00 | 0.00 | 77 | 1011.8 |
| 20260504210544 | 14 | 43 | 1.6 | 9.7 | 0.00 | 0.00 | 0.00 | 76 | 1011.9 |
| 20260504205538 | 15 | 116 | 3.2 | 11.3 | 0.00 | 0.00 | 0.00 | 75 | 1011.8 |
| 20260504205038 | 15 | 148 | 1.6 | 9.7 | 0.00 | 0.00 | 0.00 | 75 | 1011.8 |
| 20260504204038 | 15 | 92 | 1.6 | 8.0 | 0.00 | 0.00 | 0.00 | 77 | 1011.8 |
| 20260504202533 | 15 | 288 | 1.6 | 8.0 | 0.00 | 0.00 | 0.00 | 77 | 1011.9 |
| 20260504202038 | 15 | 186 | 1.6 | 14.5 | 0.00 | 0.00 | 0.00 | 79 | 1011.9 |
| 20260504200530 | 15 | 331 | 1.6 | 16.1 | 0.00 | 0.00 | 0.00 | 78 | 1011.9 |
| 20260504195528 | 14 | 49 | 1.6 | 9.7 | 0.00 | 0.00 | 0.00 | 79 | 1012.0 |
| 20260504194516 | 14 | 208 | 1.6 | 9.7 | 0.00 | 0.00 | 0.00 | 80 | 1011.9 |
| 20260504193515 | 14 | 96 | 1.6 | 12.9 | 0.00 | 0.00 | 0.00 | 78 | 1011.8 |
| 20260504192514 | 14 | 49 | 1.6 | 6.4 | 0.00 | 0.00 | 0.00 | 79 | 1012.0 |
| 20260504191456 | 14 | 47 | 1.6 | 6.4 | 0.00 | 0.00 | 0.00 | 77 | 1012.0 |
| 20260504190456 | 15 | 167 | 1.6 | 6.4 | 0.00 | 0.00 | 0.00 | 78 | 1012.0 |
| 20260504185455 | 15 | 205 | 1.6 | 9.7 | 0.00 | 0.00 | 0.00 | 78 | 1012.0 |
| 20260504184453 | 15 | 106 | 1.6 | 9.7 | 0.00 | 0.00 | 0.00 | 76 | 1011.9 |
| 20260504183451 | 15 | 236 | 3.2 | 14.5 | 0.00 | 0.00 | 0.00 | 77 | 1011.9 |
| 20260504182452 | 15 | 215 | 1.6 | 8.0 | 0.00 | 0.00 | 0.00 | 78 | 1011.9 |
| 20260504181438 | 15 | 24 | 3.2 | 9.7 | 0.00 | 0.00 | 0.00 | 76 | 1012.0 |
| 20260504180439 | 15 | 164 | 1.6 | 8.0 | 0.00 | 0.00 | 0.00 | 74 | 1011.9 |
| 20260504175926 | 16 | 115 | 1.6 | 9.7 | 0.00 | 0.00 | 0.00 | 76 | 1011.9 |
| 20260504174921 | 16 | 232 | 3.2 | 11.3 | 0.00 | 0.00 | 0.00 | 77 | 1011.7 |
| 20260504173416 | 16 | 128 | 3.2 | 11.3 | 0.00 | 0.00 | 0.00 | 77 | 1011.8 |
| 20260504172419 | 15 | 71 | 1.6 | 8.0 | 0.00 | 0.00 | 0.00 | 80 | 1011.6 |
| 20260504171417 | 15 | 39 | 1.6 | 8.0 | 0.00 | 0.00 | 0.00 | 84 | 1011.6 |
| 20260504170430 | 14 | 125 | 1.6 | 6.4 | 0.00 | 0.00 | 0.00 | 83 | 1011.6 |
| 20260504160339 | 11 | 211 | 0.0 | 3.2 | 0.00 | 0.00 | 0.00 | 96 | 1011.5 |
| 20260504150304 | 10 | 200 | 0.0 | 3.2 | 0.00 | 0.00 | 0.00 | 100 | 1011.1 |
| 20260504140212 | 8 | 228 | 0.0 | 0.0 | 0.00 | 0.00 | 0.00 | 100 | 1010.9 |